TimeCST,TemperatureF,Dew PointF,Humidity,Sea Level PressureIn,VisibilityMPH,Wind Direction,Wind SpeedMPH,Gust SpeedMPH,PrecipitationIn,Events,Conditions,WindDirDegrees,DateUTC
12:55 AM,39.6,36.9,90,30.19,10.0,Calm,Calm,-,N/A,,Clear,0,2012-11-04 05:55:00
1:55 AM,36.1,36.0,99,30.20,4.0,Calm,Calm,-,N/A,,Clear,0,2012-11-04 06:55:00
1:47 AM,33.8,33.8,100,30.19,2.5,Calm,Calm,-,N/A,,Clear,0,2012-11-04 07:47:00
1:55 AM,34.5,34.3,99,30.20,2.5,Calm,Calm,-,N/A,,Clear,0,2012-11-04 07:55:00
1:56 AM,33.8,33.8,100,30.20,3.0,Calm,Calm,-,N/A,,Clear,0,2012-11-04 07:56:00
2:55 AM,33.6,33.4,99,30.19,4.0,North,4.6,-,N/A,,Clear,360,2012-11-04 08:55:00
3:55 AM,34.2,33.8,99,30.20,5.0,Calm,Calm,-,N/A,,Clear,0,2012-11-04 09:55:00
4:55 AM,35.4,35.2,99,30.20,5.0,Calm,Calm,-,N/A,,Clear,0,2012-11-04 10:55:00
5:04 AM,32.0,32.0,100,30.20,2.5,Calm,Calm,-,N/A,,Clear,0,2012-11-04 11:04:00
5:12 AM,32.0,32.0,100,30.21,3.0,Calm,Calm,-,N/A,,Clear,0,2012-11-04 11:12:00
5:55 AM,34.7,34.5,99,30.21,4.0,ENE,3.5,-,N/A,,Clear,60,2012-11-04 11:55:00
6:22 AM,35.6,33.8,93,30.21,2.5,East,3.5,-,N/A,,Clear,90,2012-11-04 12:22:00
6:30 AM,33.8,33.8,100,30.21,1.8,Calm,Calm,-,N/A,,Clear,0,2012-11-04 12:30:00
6:38 AM,32.0,32.0,100,30.22,2.0,Calm,Calm,-,N/A,,Clear,0,2012-11-04 12:38:00
6:45 AM,33.8,33.8,100,30.22,1.8,Calm,Calm,-,N/A,,Clear,0,2012-11-04 12:45:00
6:46 AM,33.8,32.0,93,30.22,1.5,Calm,Calm,-,N/A,,Clear,0,2012-11-04 12:46:00
6:48 AM,32.0,32.0,100,30.22,1.2,Calm,Calm,-,N/A,,Clear,0,2012-11-04 12:48:00
6:50 AM,32.0,32.0,100,30.22,1.0,Calm,Calm,-,N/A,,Clear,0,2012-11-04 12:50:00
6:55 AM,32.5,32.2,99,30.23,1.0,Calm,Calm,-,N/A,,Clear,0,2012-11-04 12:55:00
6:58 AM,32.0,32.0,100,30.23,1.0,Calm,Calm,-,N/A,,Mist,0,2012-11-04 12:58:00
7:13 AM,32.0,32.0,100,30.24,0.8,Calm,Calm,-,N/A,,Mist,0,2012-11-04 13:13:00
7:14 AM,32.0,32.0,100,30.24,0.5,Calm,Calm,-,N/A,Fog,Fog,0,2012-11-04 13:14:00
7:15 AM,32.0,32.0,100,30.24,0.5,Calm,Calm,-,N/A,Fog,Fog,0,2012-11-04 13:15:00
7:16 AM,32.0,32.0,100,30.24,0.2,Calm,Calm,-,N/A,Fog,Fog,0,2012-11-04 13:16:00
7:17 AM,32.0,32.0,100,30.25,0.2,Calm,Calm,-,N/A,Fog,Fog,0,2012-11-04 13:17:00
7:19 AM,32.0,32.0,100,30.25,0.2,Calm,Calm,-,N/A,Fog,Fog,0,2012-11-04 13:19:00
7:22 AM,32.0,32.0,100,30.25,0.2,Calm,Calm,-,N/A,Fog,Light Freezing Fog,0,2012-11-04 13:22:00
7:23 AM,32.0,32.0,100,30.24,0.2,Calm,Calm,-,N/A,Fog,Light Freezing Fog,0,2012-11-04 13:23:00
7:40 AM,33.8,33.8,100,30.25,0.2,Calm,Calm,-,N/A,Fog,Fog,0,2012-11-04 13:40:00
7:55 AM,34.3,34.2,99,30.24,0.2,ENE,4.6,-,0.00,Fog,Fog,60,2012-11-04 13:55:00
8:03 AM,33.8,33.8,100,30.24,0.2,ENE,5.8,-,N/A,Fog,Fog,60,2012-11-04 14:03:00
8:25 AM,35.6,35.6,100,30.24,0.2,East,3.5,-,N/A,Fog,Fog,90,2012-11-04 14:25:00
8:32 AM,35.6,35.6,100,30.24,0.2,Calm,Calm,-,N/A,Fog,Fog,0,2012-11-04 14:32:00
8:34 AM,35.6,35.6,100,30.24,0.2,Calm,Calm,-,N/A,Fog,Fog,0,2012-11-04 14:34:00
8:35 AM,35.6,35.6,100,30.24,0.2,Calm,Calm,-,N/A,Fog,Fog,0,2012-11-04 14:35:00
8:38 AM,35.6,35.6,100,30.24,0.5,Calm,Calm,-,N/A,Fog,Fog,0,2012-11-04 14:38:00
8:48 AM,35.6,35.6,100,30.24,0.8,Calm,Calm,-,N/A,,Mist,0,2012-11-04 14:48:00
8:49 AM,35.6,35.6,100,30.24,0.8,NE,3.5,-,N/A,,Mist,50,2012-11-04 14:49:00
8:51 AM,37.4,37.4,100,30.24,1.0,Calm,Calm,-,N/A,,Mist,0,2012-11-04 14:51:00
8:54 AM,37.4,37.4,100,30.24,1.2,Calm,Calm,-,N/A,,Mostly Cloudy,0,2012-11-04 14:54:00
8:55 AM,36.7,36.7,100,30.24,1.2,Calm,Calm,-,0.00,,Mostly Cloudy,0,2012-11-04 14:55:00
8:56 AM,37.4,37.4,100,30.24,1.5,NNE,3.5,-,N/A,,Mostly Cloudy,30,2012-11-04 14:56:00
8:58 AM,37.4,37.4,100,30.25,1.8,Calm,Calm,-,N/A,,Mostly Cloudy,0,2012-11-04 14:58:00
8:59 AM,37.4,37.4,100,30.25,2.0,Calm,Calm,-,N/A,,Mostly Cloudy,0,2012-11-04 14:59:00
9:01 AM,37.4,37.4,100,30.25,2.5,Calm,Calm,-,N/A,,Mostly Cloudy,0,2012-11-04 15:01:00
9:02 AM,37.4,37.4,100,30.24,3.0,Calm,Calm,-,N/A,,Mostly Cloudy,0,2012-11-04 15:02:00
9:08 AM,37.4,37.4,100,30.24,4.0,Calm,Calm,-,N/A,,Overcast,0,2012-11-04 15:08:00
9:13 AM,37.4,37.4,100,30.24,5.0,Calm,Calm,-,N/A,,Overcast,0,2012-11-04 15:13:00
9:55 AM,41.9,41.5,99,30.23,10.0,NE,4.6,-,N/A,,Clear,40,2012-11-04 15:55:00
10:55 AM,47.3,34.0,60,30.24,10.0,Calm,Calm,-,N/A,,Clear,0,2012-11-04 16:55:00
11:55 AM,51.6,33.8,51,30.21,10.0,Variable,3.5,-,N/A,,Clear,0,2012-11-04 17:55:00
12:55 PM,53.8,32.5,45,30.19,10.0,Variable,3.5,-,N/A,,Clear,0,2012-11-04 18:55:00
1:55 PM,55.0,29.1,37,30.17,10.0,Calm,Calm,-,N/A,,Partly Cloudy,0,2012-11-04 19:55:00
2:55 PM,55.2,27.7,35,30.15,10.0,Calm,Calm,-,N/A,,Mostly Cloudy,0,2012-11-04 20:55:00
3:55 PM,54.9,31.3,41,30.14,10.0,Calm,Calm,-,N/A,,Partly Cloudy,0,2012-11-04 21:55:00
4:55 PM,53.1,33.4,47,30.13,10.0,NE,4.6,-,N/A,,Scattered Clouds,40,2012-11-04 22:55:00
5:55 PM,52.0,32.0,47,30.14,10.0,ENE,5.8,-,N/A,,Overcast,70,2012-11-04 23:55:00
6:55 PM,49.3,31.6,51,30.14,10.0,East,4.6,-,N/A,,Mostly Cloudy,90,2012-11-05 00:55:00
7:55 PM,49.1,30.4,49,30.13,10.0,East,5.8,-,N/A,,Mostly Cloudy,80,2012-11-05 01:55:00
8:55 PM,48.2,32.0,54,30.13,10.0,ESE,5.8,-,N/A,,Overcast,110,2012-11-05 02:55:00
9:55 PM,47.7,32.4,55,30.12,10.0,SE,5.8,-,N/A,,Scattered Clouds,130,2012-11-05 03:55:00
10:55 PM,48.4,33.3,56,30.11,10.0,Variable,3.5,-,N/A,,Overcast,0,2012-11-05 04:55:00